Flag for U.S.A. Weather past 2 weeks in Kykotsmovi Village, Hopi, Arizona, U.S.A.

Now
44 °F

Light rain. Overcast.


Feels Like: 36 °F
Forecast: 30 / 48 °F
Wind: 17 mph from West

Location: Winslow Municipal Airport

Current Time: Mar 2, 2015 at 2:41:16 PM

Latest Report: Mar 2, 2015 at 1:56 PM


Visibility: 10 mi

Pressure: 29.80 "Hg

Humidity: 89%

Dew point: 41 °F

Location of Kykotsmovi Village, HopiLocation

Historic Weather in Kykotsmovi Village, Hopi — Graph

°F

Kykotsmovi Village, Hopi temperature yesterday

Maximum temperature yesterday: 49 °F (at 4:56 PM)
Minimum temperature yesterday: 35 °F (at 11:56 PM)
Average temperature yesterday: 42 °F

Past Weeks' High & Low Weather Summary

 TemperatureHumidityPressure
High74 °F (Feb 15, 2:56 PM)97% (Feb 23, 9:56 PM)30.33 "Hg (Feb 23, 9:56 PM)
Low20 °F (Feb 17, 6:56 AM)6% (Feb 16, 12:56 PM)29.66 "Hg (Feb 28, 3:56 AM)
Average44 °F57%29.95 "Hg
* Reported Feb 15 12:56 PM — Mar 2 12:56 PM, Kykotsmovi Village, Hopi, Weather by CustomWeather, © 2015

Note: Actual official high and low records may vary slightly from our data, if they occured in-between our weather recording intervals... More about our weather records

Advertising

Kykotsmovi Village, Hopi weather history for previous 24 hours

 ConditionsComfort  
Time TempWeatherWind HumidityBarometerVisibility
12:56 PM
Mon, Mar 2
51 °FLight rain. Overcast.23 mph71%29.77 "Hg10 mi
11:56 AM58 °FScattered clouds.26 mph50%29.75 "Hg10 mi
10:56 AM55 °FPassing clouds.26 mph57%29.77 "Hg10 mi
9:56 AM53 °FSunny.33 mph59%29.78 "Hg10 mi
8:56 AM51 °FSunny.25 mph69%29.80 "Hg10 mi
7:56 AM48 °FSunny.18 mph77%29.81 "Hg10 mi
6:56 AM46 °FLight rain. Overcast.13 mph83%29.83 "Hg10 mi
5:56 AM44 °FPartly cloudy.7 mph85%29.83 "Hg10 mi
4:56 AM38 °FPartly cloudy.No wind93%29.85 "Hg10 mi
3:56 AM38 °FPassing clouds.6 mph93%29.88 "Hg10 mi
2:56 AM38 °FClear.3 mph93%29.90 "Hg10 mi
1:56 AM38 °FPassing clouds.7 mph93%29.94 "Hg10 mi
12:56 AM38 °FClear.7 mph97%29.95 "Hg10 mi
11:56 PM
Sun, Mar 1
35 °FPassing clouds.No wind96%29.98 "Hg10 mi
10:56 PM36 °FFog.3 mph97%30.01 "Hg0 mi
9:56 PM38 °FFog.No wind97%30.02 "Hg1 mi
8:56 PM38 °FClear.No wind93%30.01 "Hg10 mi
7:56 PM42 °FPassing clouds.No wind89%29.98 "Hg10 mi
6:56 PM43 °FClear.6 mph89%29.98 "Hg10 mi
5:56 PM48 °FMostly cloudy.7 mph77%29.96 "Hg10 mi
4:56 PM49 °FSunny.3 mph74%29.94 "Hg10 mi
3:56 PM48 °FScattered clouds.7 mph77%29.96 "Hg10 mi
2:56 PM47 °FPartly sunny.7 mph80%29.97 "Hg10 mi
Weather by CustomWeather, © 2015

See weather overviewHow to use our weather pages